[[{"header":{"parameterUnit":"m.s-1","parameterCategory":1,"la1":30.2991,"la2":30.254,"lo1":-89.0895,"lo2":-89.0444,"dy":0.0017,"dx":0.0017,"nx":28,"ny":28,"refTime":"2024-06-04T21:00:00:Z","depth":0,"parameterNumber":2,"parameterNumberName":"U-component_of_WINDS"},"data":[0,0,0,0,0,0,0,0,0,0,0,0,0,0,0,0,0,0,0,0,0,0,0,0,0,0,0,0,0,0,0,0,0,0,0,0,0,0,0,0,0,0,0,0,0,0,0,0,0,0,0,0,0,0,0,0,0,0,3.2714,3.2716,0,3.2874,3.2876,3.2878,3.2885,3.2883,3.2881,3.2879,3.3053,3.3059,3.3065,0,0,0,0,0,0,0,0,0,0,0,0,0,3.2424,3.243,3.2714,3.2716,3.2718,3.2874,3.2876,3.2878,3.2885,3.2883,3.2881,3.2878,3.305,3.3058,3.3066,0,0,0,0,0,0,0,0,0,0,0,0,0,3.2564,3.2431,3.2714,3.274,3.2744,3.2873,3.2876,3.2879,3.2886,3.2883,3.288,3.2877,3.3048,3.3057,3.3067,3.3183,0,0,3.3096,3.31,0,0,0,0,0,0,0,0,3.2556,3.2575,3.2734,3.2738,3.2743,3.2856,3.2837,3.2981,3.2886,3.2832,3.2879,3.2876,3.299,3.3004,3.3041,3.3192,3.3199,3.3097,3.3103,3.3107,3.311,0,0,0,0,0,0,0,3.2546,3.2568,3.2778,3.2737,3.2742,3.2747,3.2764,3.2865,3.2926,3.2837,3.2838,3.2856,3.2992,3.3032,3.3045,3.3202,3.3097,3.3105,3.3111,3.3115,3.3459,3.3463,0,0,0,0,0,0,3.253,3.256,3.2773,3.2782,3.264,3.2755,3.2773,3.2823,3.2925,3.2937,3.2858,3.2856,3.3017,3.3034,3.3051,3.3196,3.3107,3.3116,3.3121,3.3456,3.346,3.3464,0,0,0,0,0,0,3.2524,3.2549,3.2766,3.2671,3.2699,3.2763,3.2819,3.2828,3.2867,3.2941,3.2953,3.2887,3.3015,3.3038,3.3151,3.3202,3.312,3.3129,3.3452,3.3457,3.3462,3.3486,0,0,0,0,0,0,3.2516,3.2547,3.2589,3.2672,3.2704,3.286,3.2822,3.2833,3.2883,3.2881,3.2971,3.2983,3.3015,3.3136,3.316,3.3214,3.3136,3.3448,3.3454,3.346,3.3481,3.3492,3.35,0,0,0,0,0,3.2505,3.2591,3.2591,3.2617,3.2758,3.2862,3.2881,3.2913,3.2887,3.2932,3.2979,3.298,3.3193,3.3148,3.3175,3.3232,3.3445,3.3452,3.346,3.3477,3.349,3.35,0,0,0,0,0,0,3.2516,3.2602,3.2604,3.2718,3.2783,3.2863,3.2921,3.2926,3.3001,3.2997,3.3036,3.3057,3.3169,3.3212,3.316,3.3352,3.3316,3.3329,3.332,3.3332,3.3342,3.333,3.3144,0,0,0,0,0,3.253,3.2605,3.2678,3.2773,3.2804,3.2857,3.2904,3.2923,3.2992,3.3021,3.3076,3.3147,3.3229,3.3283,3.3363,3.3487,3.3509,3.3541,3.355,3.3558,3.357,3.3641,3.3657,3.3489,3.3489,3.3489,0,0,3.2564,3.262,3.2665,3.2776,3.2828,3.2907,3.288,3.2965,3.3025,3.3035,3.3144,3.3187,3.3269,3.3388,3.3444,3.3428,3.3621,3.3568,3.3573,3.3581,3.365,3.3666,3.368,3.3494,3.3493,3.3492,0,0,3.2664,3.2713,3.2798,3.2851,3.2929,3.2964,3.2984,3.3065,3.3093,3.3203,3.3212,3.3287,3.3428,3.3486,3.3534,3.3658,3.3663,3.3683,3.3734,3.3803,3.3817,3.3829,3.3875,3.3891,3.3695,3.3695,3.3695,0,3.2696,3.2812,3.2842,3.2927,3.2977,3.2986,3.3074,3.3125,3.3227,3.3263,3.3243,3.3421,3.3476,3.361,3.3641,3.3679,3.3706,3.3674,3.3812,3.3824,3.3836,3.3881,3.3898,3.3697,3.3696,3.3696,3.3696,0,3.2849,3.293,3.299,3.3085,3.3142,3.3228,3.3274,3.3328,3.3343,3.3381,3.3495,3.3561,3.3656,3.3689,3.3705,3.3827,3.3815,3.3803,3.3767,3.3853,3.3896,3.3913,3.37,3.3699,3.3698,3.3698,0,0,3.296,3.3071,3.3092,3.3137,3.3225,3.329,3.3378,3.3468,3.3515,3.3586,3.3663,3.3782,3.3772,3.3827,3.385,3.391,3.4007,3.3892,3.3894,3.3912,3.4148,3.4157,3.4176,3.401,3.4014,3.4016,3.4142,0,3.3072,3.3225,3.3255,3.339,3.3467,3.3478,3.3555,3.362,3.3658,3.3732,3.3776,3.386,3.3839,3.3873,3.3933,3.3982,3.4056,3.3974,3.4086,3.4089,3.4065,3.4198,3.4208,3.4322,3.4158,3.4161,3.4163,0,3.3222,3.3293,3.3435,3.3514,3.3548,3.3616,3.3702,3.3771,3.3846,3.387,3.3931,3.3948,3.4044,3.4003,3.4138,3.4081,3.4129,3.4161,3.4166,3.4179,3.4132,3.4216,3.436,3.4377,3.419,3.4188,3.4186,0,3.3291,3.3423,3.3525,3.3563,3.3657,3.3705,3.3748,3.3819,3.3872,3.3948,3.3984,3.4071,3.412,3.4189,3.423,3.4196,3.4362,3.4324,3.4388,3.4387,3.4423,3.442,3.4577,3.4451,3.4451,3.4451,3.445,0,3.3412,3.3499,3.3557,3.362,3.3719,3.3755,3.3852,3.3895,3.3959,3.4033,3.4049,3.4119,3.4168,3.4246,3.428,3.4387,3.4409,3.4434,3.4442,3.4433,3.443,3.4465,3.4459,3.4455,3.4454,3.4454,3.4453,0,3.3506,3.3548,3.3661,3.3741,3.3763,3.3832,3.3903,3.3966,3.4005,3.4099,3.4123,3.4185,3.4278,3.4325,3.4442,3.4465,3.4586,3.4589,3.456,3.4563,3.4624,3.4618,3.4811,3.4839,3.4693,3.4694,3.4696,0,3.3581,3.3648,3.3735,3.3784,3.3827,3.3906,3.396,3.3998,3.4054,3.4145,3.4198,3.4291,3.4368,3.4516,3.4574,3.4664,3.467,3.4731,3.4683,3.4673,3.4673,3.4668,3.4676,3.474,3.4741,3.4742,3.4743,0,3.3712,3.3729,3.3804,3.3887,3.395,3.4018,3.4085,3.4125,3.4175,3.4238,3.4331,3.439,3.4508,3.4602,3.4696,3.4744,3.4753,3.4757,3.4777,3.4769,3.475,3.4763,3.4584,3.4753,3.4752,3.4751,3.4751,3.475,3.38,3.386,3.393,3.4014,3.4068,3.4131,3.4195,3.4241,3.4318,3.4416,3.4435,3.4534,3.461,3.4737,3.4788,3.4869,3.4856,3.4884,3.4892,3.4898,3.4902,3.4736,3.4886,3.4886,3.4886,3.4886,3.4885,0,3.3932,3.3977,3.4054,3.4146,3.4213,3.4213,3.4288,3.4345,3.4431,3.4499,3.4574,3.4683,3.4774,3.4838,3.4932,3.4984,3.4991,3.5008,3.5005,3.5016,3.4907,3.4881,3.5,3.5,3.5,3.5,3.5,3.5,3.4008,3.4111,3.4137,3.4268,3.4315,3.441,3.4453,3.4512,3.4567,3.4687,3.4761,3.4802,3.487,3.4969,3.5053,3.507,3.5105,3.5121,3.5139,3.5036,3.5024,3.5012,3.4988,3.5128,3.5128,3.5241,3.5242,3.5243]},{"header":{"parameterUnit":"m.s-1","parameterCategory":1,"la1":30.2991,"la2":30.254,"lo1":-89.0895,"lo2":-89.0444,"dy":0.0017,"dx":0.0017,"nx":28,"ny":28,"refTime":"2024-06-04T21:00:00:Z","depth":0,"parameterNumber":3,"parameterNumberName":"V-component_of_WINDS"},"data":[0,0,0,0,0,0,0,0,0,0,0,0,0,0,0,0,0,0,0,0,0,0,0,0,0,0,0,0,0,0,0,0,0,0,0,0,0,0,0,0,0,0,0,0,0,0,0,0,0,0,0,0,0,0,0,0,0,0,1.9462,1.9464,0,1.9634,1.9636,1.9638,1.966,1.9658,1.9656,1.9655,1.9833,1.9839,1.9845,0,0,0,0,0,0,0,0,0,0,0,0,0,1.9151,1.9156,1.9462,1.9464,1.9466,1.9634,1.9636,1.9639,1.966,1.9658,1.9656,1.9654,1.9831,1.9838,1.9846,0,0,0,0,0,0,0,0,0,0,0,0,0,1.9301,1.9158,1.9461,1.9497,1.9502,1.9633,1.9636,1.9639,1.966,1.9658,1.9655,1.9653,1.9828,1.9837,1.9847,1.9956,0,0,1.9876,1.988,0,0,0,0,0,0,0,0,1.9292,1.9312,1.9489,1.9495,1.95,1.9623,1.9592,1.9745,1.9661,1.96,1.9655,1.9652,1.9765,1.978,1.9818,1.9964,1.9972,1.9877,1.9882,1.9886,1.9889,0,0,0,0,0,0,0,1.9282,1.9305,1.953,1.9492,1.9499,1.9504,1.9523,1.9621,1.9695,1.9605,1.9607,1.9627,1.9768,1.9808,1.9822,1.9974,1.9876,1.9885,1.9891,1.9894,2.0216,2.0218,0,0,0,0,0,0,1.9265,1.9296,1.9525,1.9535,1.9388,1.9512,1.9532,1.9586,1.9694,1.9708,1.9629,1.9628,1.9793,1.9811,1.9828,1.9961,1.9886,1.9895,1.9901,2.0213,2.0216,2.0219,0,0,0,0,0,0,1.9258,1.9285,1.9518,1.9416,1.9446,1.952,1.958,1.9591,1.9632,1.9712,1.9725,1.9657,1.9792,1.9815,1.9923,1.9967,1.9899,1.9908,2.0209,2.0214,2.0218,2.0228,0,0,0,0,0,0,1.9249,1.9282,1.9325,1.9417,1.9452,1.961,1.9583,1.9596,1.9648,1.9647,1.9742,1.9755,1.9792,1.9909,1.9932,1.9979,1.9915,2.0206,2.0211,2.0216,2.0224,2.0232,2.0239,0,0,0,0,0,1.9238,1.9322,1.9327,1.9354,1.9506,1.9612,1.9632,1.9672,1.9651,1.9694,1.9745,1.9752,1.9959,1.992,1.9946,1.9997,2.0203,2.021,2.0216,2.022,2.023,2.0239,0,0,0,0,0,0,1.9234,1.9334,1.9341,1.9457,1.9526,1.9616,1.9671,1.9682,1.9759,1.9755,1.9802,1.9823,1.9929,1.9974,1.9929,2.0106,2.0079,2.0091,2.0073,2.0083,2.009,2.0077,1.9923,0,0,0,0,0,1.9246,1.9324,1.9408,1.9502,1.9536,1.9597,1.9645,1.967,1.9743,1.9773,1.9832,1.9903,1.9983,2.0036,2.0115,2.023,2.025,2.0278,2.0285,2.0291,2.0301,2.0363,2.0376,2.024,2.024,2.024,0,0,1.9273,1.9338,1.9384,1.9503,1.9559,1.9638,1.9622,1.9707,1.9766,1.9786,1.9891,1.9937,2.0019,2.013,2.0182,2.0171,2.0342,2.0299,2.0303,2.031,2.0371,2.0384,2.0395,2.0245,2.0244,2.0243,0,0,1.9362,1.9419,1.9503,1.9559,1.9643,1.9683,1.9703,1.9791,1.9822,1.9928,1.9944,2.0015,2.0153,2.021,2.0258,2.0365,2.0374,2.039,2.0429,2.0489,2.0499,2.0509,2.0546,2.0559,2.0399,2.0399,2.0399,0,1.9385,1.9505,1.9545,1.9629,1.968,1.97,1.9785,1.9837,1.9943,1.9978,1.9963,2.0136,2.0193,2.0317,2.0343,2.0381,2.0404,2.0379,2.0494,2.0505,2.0514,2.055,2.0564,2.0401,2.04,2.04,2.04,0,1.9527,1.961,1.9667,1.9768,1.9825,1.9909,1.9962,2.0015,2.0034,2.0076,2.0182,2.0251,2.0343,2.0374,2.0395,2.0501,2.0491,2.0485,2.0458,2.0528,2.0562,2.0576,2.0402,2.0402,2.0402,2.0401,0,0,1.962,1.974,1.976,1.9805,1.9898,1.9963,2.0047,2.0136,2.018,2.0252,2.0323,2.0438,2.0433,2.0486,2.0513,2.0566,2.0644,2.0553,2.0556,2.0567,2.0763,2.0766,2.0781,2.065,2.0653,2.0655,2.0756,0,1.9718,1.9868,1.9906,2.0033,2.0109,2.0128,2.0201,2.0266,2.0307,2.0376,2.0421,2.0501,2.0489,2.0521,2.0574,2.0623,2.0684,2.0617,2.0716,2.0719,2.0694,2.08,2.0804,2.0895,2.077,2.0772,2.0774,0,1.9854,1.9927,2.0061,2.0143,2.0176,2.0241,2.0324,2.0391,2.0465,2.049,2.0548,2.057,2.0657,2.0625,2.0745,2.0699,2.0741,2.0772,2.0776,2.0786,2.075,2.0812,2.0926,2.0939,2.0795,2.0794,2.0792,0,1.9905,2.0038,2.0135,2.0173,2.0271,2.0315,2.0359,2.043,2.048,2.0553,2.0586,2.0668,2.0713,2.0776,2.0818,2.0792,2.0934,2.0907,2.0957,2.0956,2.0986,2.0983,2.1107,2.1015,2.1015,2.1014,2.1014,0,2.0011,2.0092,2.0159,2.0218,2.0309,2.0352,2.044,2.0484,2.0547,2.0614,2.0637,2.07,2.0753,2.0823,2.0857,2.095,2.097,2.0993,2.1001,2.099,2.0987,2.1019,2.1013,2.1018,2.1017,2.1017,2.1016,0,2.0084,2.0132,2.0239,2.0322,2.0345,2.0408,2.0479,2.0537,2.0578,2.0663,2.0686,2.0749,2.0832,2.0881,2.0987,2.1009,2.1112,2.1118,2.1087,2.109,2.1137,2.1131,2.1285,2.1306,2.12,2.1201,2.1202,0,2.0148,2.021,2.03,2.0346,2.0389,2.0465,2.0515,2.0559,2.0611,2.0698,2.0745,2.083,2.09,2.1032,2.1087,2.1168,2.1175,2.1223,2.1187,2.1174,2.1174,2.1169,2.1175,2.1229,2.123,2.1231,2.1231,0,2.0255,2.0275,2.0347,2.0427,2.0487,2.0553,2.0618,2.0655,2.0709,2.0766,2.0851,2.0905,2.1012,2.1095,2.118,2.1224,2.1236,2.1242,2.1257,2.1247,2.1226,2.1237,2.1102,2.1238,2.1237,2.1237,2.1237,2.1236,2.0325,2.038,2.0451,2.053,2.0583,2.0643,2.0701,2.0747,2.0819,2.0909,2.093,2.1019,2.1089,2.1204,2.125,2.132,2.1311,2.1334,2.134,2.1345,2.1345,2.1215,2.1335,2.1335,2.1335,2.1335,2.1335,0,2.0431,2.0477,2.055,2.0639,2.0701,2.0707,2.0778,2.083,2.0908,2.0972,2.1039,2.1136,2.1216,2.1277,2.1359,2.1403,2.1411,2.1423,2.142,2.143,2.1349,2.1327,2.1415,2.1415,2.1415,2.1415,2.1415,2.1415,2.0494,2.0588,2.0616,2.0736,2.0782,2.0868,2.0909,2.0963,2.1015,2.1121,2.1188,2.1226,2.1289,2.1375,2.1449,2.1465,2.1493,2.1504,2.1521,2.1444,2.1436,2.1427,2.1406,2.1511,2.1511,2.1596,2.1596,2.1597]}]]